Alice Springs, Australia

5:14 PM ACST on December 10, 2019 (GMT +0930)
Alice Springs

Weather History for YBAS - August, 2019

Change the Weather History Date:

Saturday, August 31, 2019

  Actual Average Record
Temperature  
Mean Temperature 58 °F -  
Max Temperature 80 °F 80 °F 93 °F (2013)
Min Temperature 35 °F 50 °F 36 °F (2017)
Degree Days  
Heating Degree Days 8    
Growing Degree Days 8 (Base 50)    
Moisture  
Dew Point 14 °F    
Average Humidity 17    
Maximum Humidity 41    
Minimum Humidity 4    
Precipitation  
Precipitation 0.00 in 0.01 in - ()
Sea Level Pressure  
Sea Level Pressure 30.09 in    
Wind  
Wind Speed 3 mph ()    
Max Wind Speed 8 mph    
Max Gust Speed -    
Visibility 6.2 miles    
Events      
Averages and records for this station are not official NWS values.
T = Trace of Precipitation, MM = Missing Value Source: Averaged Metar Reports

Daily Weather History Graph

Daily Weather History Graph

Search for Another Location

Airport or City:

Astronomy

Aug. 31, 2019 Rise Set
Actual Time 6:47 AM ACST 6:23 PM ACST
Civil Twilight 6:24 AM ACST 6:45 PM ACST
Nautical Twilight 5:57 AM ACST 7:12 PM ACST
Astronomical Twilight 5:31 AM ACST 7:38 PM ACST
Moon 7:26 AM ACST (8/31) 7:19 PM ACST (8/31)
Length of Visible Light 12h 21m
Length of Day
11h 35m
New Moon, 1% of the Moon is Illuminated
Aug 31
New Moon
Sep 6
First Quarter
Sep 14
Full
Sep 22
Last Quarter
Sep 29
New

Hourly Weather History & Observations

Time (ACST) Temp. Windchill Dew Point Humidity Pressure Visibility Wind Dir Wind Speed Gust Speed Precip Events Conditions
12:00 AM 47 °F - 17 °F 18% 30.11 in - Calm Calm - -   Clear
12:00 AM 46.4 °F - 17.6 °F 32% 30.12 in 6.2 mi Calm Calm - N/A   Unknown
12:30 AM 44 °F - 15 °F 19% 30.11 in - Calm Calm - -  
12:30 AM 44.6 °F - 15.8 °F 31% 30.12 in 6.2 mi Calm Calm - N/A   Unknown
1:30 AM 42.8 °F 40.1 °F 12.2 °F 29% 30.12 in 6.2 mi West 4.6 mph - N/A   Unknown
2:00 AM 44.6 °F 43.1 °F 15.8 °F 31% 30.12 in 6.2 mi West 3.5 mph - N/A   Unknown
2:30 AM 41 °F - 14 °F 20% 30.11 in - West 4.6 mph - -  
2:30 AM 41.0 °F 38.0 °F 14.0 °F 33% 30.12 in 6.2 mi West 4.6 mph - N/A   Unknown
3:00 AM 41 °F - 15 °F 22% 30.10 in - West 5.8 mph - -   Clear
3:00 AM 41.0 °F 37.1 °F 15.8 °F 36% 30.12 in 6.2 mi West 5.8 mph - N/A   Unknown
3:30 AM 40 °F - 14 °F 22% 30.10 in - West 4.6 mph - -  
3:30 AM 41.0 °F 38.0 °F 14.0 °F 33% 30.12 in 6.2 mi West 4.6 mph - N/A   Unknown
4:00 AM 41.0 °F 38.0 °F 15.8 °F 36% 30.12 in 6.2 mi WNW 4.6 mph - N/A   Unknown
4:30 AM 37.4 °F 33.8 °F 12.2 °F 36% 30.12 in 6.2 mi NW 4.6 mph - N/A   Unknown
5:00 AM 37.4 °F - 12.2 °F 36% 30.12 in 6.2 mi Calm Calm - N/A   Unknown
5:30 AM 37.4 °F - 15.8 °F 41% 30.12 in 6.2 mi Calm Calm - N/A   Unknown
6:00 AM 37 °F - 14 °F 25% 30.11 in - Calm Calm - -   Clear
6:00 AM 37.4 °F - 14.0 °F 38% 30.12 in 6.2 mi Calm Calm - N/A   Unknown
6:30 AM 35.6 °F - 14.0 °F 41% 30.12 in 6.2 mi Calm Calm - N/A   Unknown
7:00 AM 37.4 °F 33.8 °F 14.0 °F 38% 30.12 in 6.2 mi WNW 4.6 mph - N/A   Unknown
7:30 AM 41.0 °F - 15.8 °F 36% 30.12 in 6.2 mi Calm Calm - N/A   Unknown
8:00 AM 46.4 °F - 15.8 °F 29% 30.15 in 6.2 mi Calm Calm - N/A   Unknown
8:30 AM 56 °F - 20 °F 14% 30.14 in - Calm Calm - -  
8:30 AM 55.4 °F - 19.4 °F 25% 30.15 in 6.2 mi Calm Calm - N/A   Unknown
9:00 AM 59 °F - 21 °F 13% 30.14 in - Calm Calm - -   Clear
9:00 AM 59.0 °F - 21.2 °F 23% 30.15 in 6.2 mi Calm Calm - N/A   Unknown
9:30 AM 64 °F - 22 °F 10% 30.14 in - Calm Calm - -  
9:30 AM 64.4 °F - 21.2 °F 19% 30.15 in 6.2 mi Calm Calm - N/A   Unknown
10:00 AM 68.0 °F - 23.0 °F 18% 30.15 in 6.2 mi NNE 4.6 mph - N/A   Unknown
10:30 AM 69.8 °F - 19.4 °F 15% 30.12 in 6.2 mi NNW 5.8 mph - N/A   Unknown
11:30 AM 74 °F - 18 °F 5% 30.11 in - SW 3.5 mph - -  
11:30 AM 73.4 °F - 17.6 °F 12% 30.12 in 6.2 mi SW 3.5 mph - N/A   Unknown
12:00 PM 76 °F - 18 °F 5% 30.09 in - ENE 4.6 mph - -   Clear
12:00 PM 77.0 °F - 17.6 °F 11% 30.09 in 6.2 mi ENE 4.6 mph - N/A   Unknown
12:30 PM 76 °F - 13 °F 4% 30.08 in - WNW 6.9 mph - -  
12:30 PM 77.0 °F - 14.0 °F 9% 30.09 in 6.2 mi WNW 6.9 mph - N/A   Unknown
1:00 PM 77.0 °F - 14.0 °F 9% 30.06 in 6.2 mi SW 4.6 mph - N/A   Unknown
1:30 PM 77.0 °F - 14.0 °F 9% 30.06 in 6.2 mi SSE 6.9 mph - N/A   Unknown
2:00 PM 78.8 °F - 12.2 °F 8% 30.04 in 6.2 mi East 4.6 mph - N/A   Unknown
2:30 PM 79 °F - 10 °F 4% 30.02 in - ESE 8.1 mph - -  
2:30 PM 78.8 °F - 8.6 °F 7% 30.04 in 6.2 mi ESE 8.1 mph - N/A   Unknown
3:00 PM 79 °F - 10 °F 4% 30.01 in - SSW 8.1 mph - -   Clear
3:00 PM 78.8 °F - 10.4 °F 7% 30.01 in 6.2 mi SSW 8.1 mph - N/A   Unknown
3:30 PM 79 °F - 10 °F 4% 29.99 in - SSW 4.6 mph - -  
3:30 PM 78.8 °F - 10.4 °F 7% 30.01 in 6.2 mi SSW 4.6 mph - N/A   Unknown
4:30 PM 80.6 °F - 10.4 °F 7% 30.01 in 6.2 mi ENE 4.6 mph - N/A   Unknown
5:30 PM 79 °F - 10 °F 4% 29.99 in - South 4.6 mph - -  
5:30 PM 78.8 °F - 10.4 °F 7% 30.01 in 6.2 mi South 4.6 mph - N/A   Unknown
6:00 PM 77 °F - 11 °F 4% 29.99 in - SE 4.6 mph - -   Clear
6:00 PM 77.0 °F - 12.2 °F 9% 30.01 in 6.2 mi SE 4.6 mph - N/A   Unknown
6:30 PM 73.4 °F - 8.6 °F 8% 30.01 in 6.2 mi ENE 6.9 mph - N/A   Unknown
7:00 PM 69.8 °F - 8.6 °F 9% 30.04 in 6.2 mi East 5.8 mph - N/A   Unknown
7:30 PM 69.8 °F - 10.4 °F 10% 30.04 in 6.2 mi ENE 6.9 mph - N/A   Unknown
8:30 PM 64 °F - 9 °F 4% 30.05 in - East 5.8 mph - -  
8:30 PM 64.4 °F - 8.6 °F 11% 30.06 in 6.2 mi East 5.8 mph - N/A   Unknown
9:00 PM 62 °F - 9 °F 5% 30.06 in - East 6.9 mph - -   Clear
9:00 PM 62.6 °F - 8.6 °F 12% 30.06 in 6.2 mi East 6.9 mph - N/A   Unknown
9:30 PM 59.0 °F - 8.6 °F 14% 30.06 in 6.2 mi East 6.9 mph - N/A   Unknown
10:00 PM 55.4 °F - 6.8 °F 14% 30.09 in 6.2 mi Calm Calm - N/A   Unknown
10:30 PM 55.4 °F - 8.6 °F 15% 30.09 in 6.2 mi SE 4.6 mph - N/A   Unknown
11:00 PM 51.8 °F - 6.8 °F 16% 30.09 in 6.2 mi Calm Calm - N/A   Unknown
11:30 PM 52 °F - 8 °F 7% 30.08 in - Calm Calm - -  
11:30 PM 51.8 °F - 6.8 °F 16% 30.09 in 6.2 mi Calm Calm - N/A   Unknown